Weather History for Rexburg, ID

Change the Weather History Date:

Monday, March 18, 2013

  Actual Average Record
Temperature  
Mean Temperature 32 °F 35 °F  
Max Temperature 42 °F 46 °F 63 °F (2004)
Min Temperature 21 °F 25 °F 14 °F (2002)
Degree Days  
Heating Degree Days 33 30  
Month to date heating degree days 594 605  
Since 1 July heating degree days 6261 6578  
Cooling Degree Days 0 0  
Month to date cooling degree days 0 0  
Year to date cooling degree days 0 0  
Moisture  
Dew Point 17 °F    
Average Humidity 61    
Maximum Humidity 84    
Minimum Humidity 38    
Precipitation  
Precipitation 0.00 in 0.03 in 0.90 in (1993)
Month to date precipitation 0.17 0.52  
Year to date precipitation 1.75 2.09  
Sea Level Pressure  
Sea Level Pressure 30.03 in    
Wind  
Wind Speed 10 mph (SW)    
Max Wind Speed 26 mph    
Max Gust Speed 36 mph    
Visibility 10 miles    
Events      
T = Trace of Precipitation, MM = Missing Value Source: NWS Daily Summary

Daily Weather History Graph

Daily Weather History Graph

Search for Another Location

Airport:

Trip Planner

Search our weather history database for the weather conditions in past years. The results will help you decide how hot, cold, wet, or windy it might be!

Date:

Astronomy

Mar. 18, 2013 Rise Set
Actual Time 7:33 AM MDT 7:37 PM MDT
Civil Twilight 7:04 AM MDT 8:06 PM MDT
Nautical Twilight 6:31 AM MDT 8:39 PM MDT
Astronomical Twilight 5:57 AM MDT 9:14 PM MDT
Moon 11:24 AM MDT (3/18) 1:51 AM MDT (3/18)
Length of Visible Light 13h 01m
Length of Day
12h 04m
Waxing Crescent, 41% of the Moon is Illuminated
Mar 18
Waxing Crescent
Mar 19
First Quarter
Mar 27
Full
Apr 2
Last Quarter
Apr 10
New

Hourly Weather History & Observations

Time (MDT) Temp. Windchill Dew Point Humidity Pressure Visibility Wind Dir Wind Speed Gust Speed Precip Events Conditions
12:53 AM 26.1 °F 21.9 °F 16.0 °F 66% 30.01 in 10.0 mi SSW 3.5 mph - N/A   Clear
1:53 AM 24.1 °F - 16.0 °F 71% 30.04 in 10.0 mi Calm Calm - N/A   Clear
2:53 AM 21.9 °F - 17.1 °F 82% 30.06 in 10.0 mi Calm Calm - N/A   Clear
3:53 AM 21.9 °F - 17.1 °F 82% 30.06 in 10.0 mi Calm Calm - N/A   Partly Cloudy
4:53 AM 21.9 °F - 17.1 °F 82% 30.04 in 10.0 mi Calm Calm - N/A   Scattered Clouds
5:53 AM 21.9 °F 17.2 °F 16.0 °F 78% 30.04 in 10.0 mi SSW 3.5 mph - N/A   Partly Cloudy
6:53 AM 24.1 °F 16.0 °F 16.0 °F 71% 30.04 in 10.0 mi South 6.9 mph - N/A   Mostly Cloudy
7:53 AM 21.9 °F 15.7 °F 15.1 °F 75% 30.08 in 10.0 mi South 4.6 mph - N/A   Clear
8:53 AM 24.1 °F 15.2 °F 17.1 °F 75% 30.10 in 10.0 mi SSW 8.1 mph - N/A   Mostly Cloudy
9:53 AM 26.1 °F 15.6 °F 17.1 °F 69% 30.11 in 10.0 mi SSW 11.5 mph - N/A   Overcast
10:53 AM 28.9 °F 19.8 °F 16.0 °F 58% 30.11 in 10.0 mi SW 10.4 mph - N/A   Overcast
11:53 AM 32.0 °F 22.5 °F 15.1 °F 50% 30.09 in 10.0 mi SW 12.7 mph 17.3 mph N/A   Clear
12:53 PM 35.1 °F 25.2 °F 19.0 °F 52% 30.04 in 10.0 mi WSW 16.1 mph 24.2 mph N/A   Partly Cloudy
1:53 PM 36.0 °F 27.1 °F 17.1 °F 46% 30.03 in 10.0 mi WSW 13.8 mph 24.2 mph N/A   Overcast
2:53 PM 37.0 °F 28.1 °F 15.1 °F 41% 30.00 in 10.0 mi West 15.0 mph - N/A   Overcast
3:53 PM 39.9 °F 30.5 °F 19.9 °F 45% 29.96 in 10.0 mi WSW 19.6 mph 27.6 mph N/A   Overcast
4:53 PM 39.9 °F 31.8 °F 19.9 °F 45% 29.96 in 10.0 mi WSW 15.0 mph 31.1 mph N/A   Overcast
5:53 PM 41.0 °F 30.9 °F 18.0 °F 40% 29.93 in 10.0 mi SW 24.2 mph 31.1 mph N/A   Mostly Cloudy
6:53 PM 39.9 °F 29.5 °F 19.0 °F 43% 29.91 in 10.0 mi SW 24.2 mph 32.2 mph N/A   Clear
7:53 PM 37.0 °F 26.7 °F 18.0 °F 46% 29.94 in 10.0 mi WSW 19.6 mph 26.5 mph N/A   Clear
8:53 PM 35.1 °F 26.4 °F 18.0 °F 50% 29.97 in 10.0 mi WSW 12.7 mph 20.7 mph N/A   Clear
9:53 PM 30.9 °F 24.3 °F 17.1 °F 57% 30.03 in 10.0 mi West 6.9 mph - N/A   Clear
10:53 PM 30.0 °F 25.2 °F 14.0 °F 51% 30.06 in 10.0 mi NW 4.6 mph - N/A   Clear
11:53 PM 27.0 °F - 14.0 °F 58% 30.09 in 10.0 mi Calm Calm - N/A   Clear